Find Jilin-1 GaoFen 06A 01 xing

NORAD ID: 57012 Int'l Des: NNA 2023-085 Owner: CGSTL Country: CN Constellation: jilin-1 operational
LEOCIRCULARRETROGRADESSO

实时位置

正在加载3D地球...

关于 Jilin-1 GaoFen 06A 01 xing

正在加载描述...

即将过境

Passes for default location (London). Set your location on the main map for personalized predictions.

高度历史

Loading altitude history...

两行轨道根数

1 57012U 23085J 26131.17391498 .00009351 00000-0 29135-3 0 9999
2 57012 97.4892 243.1241 0006967 159.2711 200.8815 15.33463367161099
Epoch: May 11, 2026 • Age: 8 hours

当前状态

高度 494.5 km
速度 7.61 km/s
星下点 -68.95°S, 141.45°W
发射日期 Jun 15, 2023
运行时间 2.9 years
类型 earth observation

技术详情

分类 Payload
质量 42.00 kg
干质量 42.00 kg
总质量 42.00 kg
长度 1.50 m
直径 1.00 m
跨度 1.50 m
形状 Box
制造商 CGSTL
平台类型 JL-1
阶段状态 In Orbit
所有者/国家 CGSTL/CN

Most Searched